CST,Max TemperatureF,Mean TemperatureF,Min TemperatureF,Max Dew PointF,MeanDew PointF,Min DewpointF,Max Humidity, Mean Humidity, Min Humidity, Max Sea Level PressureIn, Mean Sea Level PressureIn, Min Sea Level PressureIn, Max VisibilityMiles, Mean VisibilityMiles, Min VisibilityMiles, Max Wind SpeedMPH, Mean Wind SpeedMPH, Max Gust SpeedMPH,PrecipitationIn, CloudCover, Events, WindDirDegrees
2014-1-1,10,6,3,4,0,-4,82,75,70,30.37,30.27,30.18,10,7,1,17,12,20,0.00,7,Snow,21
2014-1-2,6,-2,-11,-3,-8,-17,78,69,55,30.47,30.41,30.33,10,10,10,14,10,,0.00,2,,337
2014-1-3,32,10,-11,23,8,-17,78,71,66,30.41,29.95,29.57,10,10,5,28,13,34,0.00,1,,179
2014-1-4,34,21,8,29,13,0,82,71,64,30.20,29.91,29.58,10,10,5,29,20,38,0.00,3,Snow,320
2014-1-5,7,-2,-11,-1,-11,-24,70,58,46,30.44,30.33,30.20,10,10,10,29,21,36,0.00,4,,337
2014-1-6,-1,-7,-13,-12,-18,-24,72,61,54,30.43,30.37,30.28,10,10,10,24,15,33,0.00,2,,295
2014-1-7,16,4,-9,5,-3,-16,77,69,58,30.28,30.17,30.06,10,10,10,10,5,,0.00,3,,111
2014-1-8,15,10,5,5,1,-2,81,69,56,30.44,30.38,30.25,10,10,7,9,3,,0.00,3,,80
2014-1-9,25,14,2,20,9,-3,92,80,72,30.40,30.19,29.98,10,8,3,16,7,,0.00,5,Snow,139
2014-1-10,32,27,22,32,29,20,99,96,93,29.99,29.69,29.54,5,2,0,14,6,20,0.00,8,Fog-Rain-Snow,149
2014-1-11,32,26,19,31,24,17,95,88,76,29.82,29.70,29.55,10,8,4,22,9,26,0.00,3,,278
2014-1-12,45,34,23,34,29,21,91,74,58,29.74,29.56,29.44,10,10,10,21,12,26,0.00,2,,221
2014-1-13,44,38,31,32,27,21,83,70,47,29.80,29.70,29.60,10,10,10,21,11,28,0.00,3,,267
2014-1-14,41,30,17,32,18,8,81,63,47,30.16,29.92,29.58,10,10,7,32,21,43,0.00,7,Snow,313
2014-1-15,32,23,14,21,8,1,73,57,31,30.19,30.01,29.63,10,10,10,23,14,30,0.00,6,Snow,263
2014-1-16,38,24,9,30,17,0,90,65,44,29.96,29.73,29.59,10,8,0,34,19,47,0.00,6,Snow,306
2014-1-17,22,14,5,10,4,-2,81,69,58,30.08,30.01,29.86,10,10,2,25,16,34,0.00,3,Snow,301
2014-1-18,37,26,14,33,19,6,89,76,58,30.03,29.77,29.52,10,10,5,33,15,40,0.00,6,Rain-Snow,288
2014-1-19,54,36,18,29,24,14,86,63,32,29.96,29.74,29.59,10,10,10,20,12,25,0.00,0,,257
2014-1-20,46,26,5,32,23,-3,91,74,51,30.38,30.00,29.80,10,8,1,30,13,39,0.01,4,Snow,313
2014-1-21,15,4,-7,6,-5,-15,74,67,62,30.48,30.30,30.03,10,10,2,24,12,33,0.00,4,Snow,236
2014-1-22,20,9,-3,13,2,-12,78,66,53,30.52,30.18,29.99,10,10,4,25,14,36,0.00,6,Snow,321
2014-1-23,9,1,-7,-3,-9,-15,75,66,58,30.77,30.65,30.45,10,10,10,18,13,23,0.00,0,,299
2014-1-24,43,22,2,33,12,-6,78,55,44,30.43,29.90,29.60,10,10,10,26,17,32,0.00,5,,241
2014-1-25,38,27,16,34,7,-9,87,49,23,30.02,29.84,29.48,10,10,4,30,17,38,0.00,4,Snow,318
2014-1-26,49,26,2,31,17,-14,76,55,39,30.22,29.67,29.40,10,10,4,38,22,48,0.00,5,Rain-Snow,305
2014-1-27,6,0,-6,-10,-14,-17,69,50,35,30.47,30.40,30.23,10,10,10,30,16,39,0.00,0,,319
2014-1-28,16,4,-8,-6,-11,-16,74,55,30,30.45,30.35,30.22,10,10,10,21,8,26,0.00,0,,276
2014-1-29,40,19,-2,10,1,-10,73,46,20,30.21,29.96,29.64,10,10,10,26,12,33,0.00,0,,204
2014-1-30,41,26,10,26,9,-1,68,48,30,30.08,29.71,29.43,10,10,10,34,23,40,0.00,4,,279
2014-1-31,21,14,8,10,-1,-3,82,54,35,30.19,30.09,29.99,10,10,2,15,8,18,0.00,5,Snow,62